This is the latest recevied weather packets stored in our database for station/object K5KVN. If no packets are shown the sender has not sent any weather packets the latest 1 day(s).
| Time | Temp. | Humidity | Pressure | Rain* | Wind** | Luminosity | Snow |
|---|---|---|---|---|---|---|---|
| 1777973442 | 15.56° C | 95% | 1006.5 hPa | 0.76 mm | 0 m/s | - | - |
| 1777972782 | 15.56° C | 95% | 1006.8 hPa | 1.02 mm | 0 m/s | - | - |
| 1777972181 | 15.56° C | 95% | 1006.5 hPa | 4.06 mm | 0 m/s | - | - |
| 1777971581 | 15.56° C | 95% | 1006.5 hPa | 7.87 mm | 0 m/s | - | - |
| 1777970980 | 15.56° C | 95% | 1006.8 hPa | 12.19 mm | 0 m/s | - | - |
| 1777970377 | 15.56° C | 95% | 1006.3 hPa | 19.3 mm | 0 m/s | - | - |
| 1777969771 | 15.56° C | 95% | 1006.5 hPa | 21.34 mm | 0 m/s | - | - |
| 1777969170 | 16.11° C | 94% | 1006.7 hPa | 20.83 mm | 0 m/s | - | - |
| 1777968630 | 16.11° C | 94% | 1005.3 hPa | 17.78 mm | 0 m/s | - | - |
| 1777967965 | 16.11° C | 92% | 1006.4 hPa | 13.46 mm | 0.45 m/s, 0° | - | - |
| 1777967363 | 16.67° C | 91% | 1006.3 hPa | 10.16 mm | 2.24 m/s, 16° | - | - |
| 1777966766 | 17.22° C | 90% | 1005.9 hPa | 4.57 mm | 2.24 m/s, 0° | - | - |
| 1777966163 | 16.67° C | 92% | 1006.2 hPa | 2.54 mm | 0.45 m/s, 337° | - | - |
| 1777965566 | 16.67° C | 91% | 1004.7 hPa | 2.54 mm | 0 m/s | - | - |
| 1777964962 | 16.67° C | 92% | 1004.6 hPa | 3.05 mm | 0 m/s | - | - |
| 1777964363 | 16.67° C | 92% | 1004.8 hPa | 3.05 mm | 1.34 m/s, 167° | - | - |
| 1777963763 | 16.67° C | 92% | 1005.1 hPa | 2.03 mm | 0.89 m/s, 148° | - | - |
| 1777963160 | 16.67° C | 90% | 1006.8 hPa | 0.51 mm | 0 m/s | - | - |
| 1777962560 | 16.67° C | 89% | 1006.7 hPa | 0.51 mm | 0 m/s | - | - |
| 1777961959 | 17.22° C | 87% | 1005.3 hPa | 0.51 mm | 0 m/s | - | - |
* Rain latest hour (hover to see other rain measurements)
** Current wind speed in m/s (hover to see current wind gust speed)